Location: Binningen
(47.7924°N, 8.7261°E)
Time: 18:50:11
(UTC+00:00)

Cosmos 1937 Rocket - Pass Details

Date: 17 May 2021
Orbit: 745 x 781 km, 74.0° (Epoch: 22 June)

Event Time Altitude Azimuth Distance (km) Brightness Sun altitude
Exits shadow 21:38:11 - 219° (SW) 2,524 5.9 -18.8°
Reaches altitude 10° 21:38:53 10° 221° (SW) 2,263 5.7 -18.8°
Maximum altitude 21:43:52 52° 298° (WNW) 938 4.2 -19.2°
Drops below altitude 10° 21:48:57 10° 14° (NNE) 2,296 6.7 -19.5°
Sets 21:51:25 0° 20° (NNE) 3,232 7.5 -19.7°
